GFSGBSN_sfc_thetae_000.txt.gz
Theta_e
317 318 317 318 318 317 317 317 317 318 318 317 318 318 319 318 318 319 319 319 318 319 322 322 323 322 321 317 317 333 352 350 328 325 323 324 319 325 321 320 320 321 323 324 327 327 326
317 316 316 317 317 316 316 316 316 317 317 317 317 318 318 318 318 318 319 318 317 318 322 323 322 319 319 313 327 331 325 324 324 324 324 324 322 328 323 320 319 324 324 323 325 324 326
316 316 316 316 316 316 315 315 315 316 316 316 317 317 317 317 317 317 317 316 316 318 322 321 321 321 321 316 327 331 327 321 324 325 322 324 326 326 323 319 326 324 320 322 322 325 324
315 315 315 315 315 316 315 315 315 316 316 316 316 317 317 317 317 317 316 316 316 320 322 321 322 324 319 329 329 329 327 322 322 325 324 326 331 325 322 324 322 320 321 314 322 324 322
314 314 314 314 315 316 316 316 315 316 316 316 316 316 316 316 316 315 314 314 316 323 322 322 324 324 321 328 322 329 328 319 320 323 324 327 329 321 321 316 317 318 312 315 318 323 322
314 314 314 315 315 315 315 315 315 315 315 315 315 315 315 315 315 314 313 314 322 324 325 327 326 321 327 323 322 326 328 322 320 320 320 323 322 316 316 315 308 312 313 316 316 321 323
313 313 314 314 314 314 315 314 315 315 315 315 315 314 314 314 313 312 313 317 325 326 327 322 320 318 321 328 327 322 325 319 319 317 314 320 313 310 313 316 318 318 316 315 318 323 322
314 314 315 314 314 314 314 314 314 315 315 315 314 314 314 313 312 312 313 314 322 323 316 322 324 324 325 324 317 318 323 315 314 311 316 315 310 315 317 318 316 315 314 314 318 322 321
315 315 314 313 314 314 314 314 314 314 314 314 314 314 313 312 311 314 317 322 327 325 316 317 321 319 322 323 317 316 319 316 312 312 313 311 313 317 316 314 313 314 311 312 314 319 319
315 314 314 313 313 314 314 313 314 314 314 314 314 313 312 310 310 314 315 325 329 327 309 311 315 318 321 321 315 320 321 317 314 311 314 313 317 315 314 312 313 309 314 314 313 313 308
315 314 314 314 314 314 313 313 313 313 313 313 313 313 311 309 310 310 317 321 323 322 297 313 314 324 321 317 317 316 321 317 312 313 313 310 312 313 312 313 315 311 315 313 313 311 310
314 314 314 314 314 313 313 312 313 312 313 313 313 312 311 312 313 317 321 322 319 308 298 310 315 314 314 316 315 317 316 318 318 314 314 313 317 315 314 315 315 316 316 314 313 310 304
314 314 314 314 314 313 312 312 312 312 312 312 311 309 309 312 308 316 316 315 305 301 312 308 310 313 313 312 311 314 311 310 308 306 306 311 312 316 317 313 316 315 312 305 303 303 302
314 314 313 313 313 313 313 312 312 312 312 311 308 307 312 314 315 314 315 307 300 308 308 314 313 313 309 312 310 311 310 307 312 311 308 305 304 313 316 314 312 312 312 305 300 301 304
313 313 313 313 313 313 313 312 312 312 311 310 307 314 314 321 320 317 309 301 304 307 313 311 313 308 308 311 310 310 309 307 311 313 308 306 307 316 316 317 317 312 309 314 308 309 304
313 312 313 313 313 313 313 312 312 312 311 309 309 311 312 318 323 315 305 300 307 312 313 315 308 311 306 308 307 309 308 311 311 315 317 313 308 314 315 317 317 315 316 307 308 302 300
311 311 311 312 313 313 313 313 312 311 310 309 312 311 318 320 323 309 300 304 309 313 315 313 312 311 309 308 309 309 309 312 314 314 317 315 313 311 314 312 310 312 311 311 311 308 302
310 311 311 312 312 313 313 313 312 310 309 309 309 303 319 323 310 308 303 308 308 311 316 315 315 313 312 313 309 309 309 312 316 316 312 316 313 308 310 316 317 315 313 313 307 307 309
309 310 310 312 312 313 313 313 312 310 309 307 305 308 319 321 304 305 309 309 311 310 313 313 311 314 315 313 310 311 311 316 318 316 315 316 311 306 308 312 315 311 314 313 312 312 310
310 310 310 310 311 312 312 312 311 310 309 308 306 303 309 314 312 308 307 308 308 313 313 315 313 315 312 312 315 311 311 314 317 317 327 319 312 311 303 309 313 310 311 312 311 308 309
309 309 309 310 310 310 312 312 311 311 309 308 309 305 313 307 307 308 309 310 310 308 313 316 313 312 312 311 312 311 313 313 315 319 317 316 313 311 310 311 311 311 311 311 309 311 308
308 308 308 309 309 310 311 311 311 311 309 310 306 303 308 306 311 313 307 309 311 312 312 311 310 312 313 311 315 314 316 317 313 316 314 316 312 312 308 311 311 309 311 312 312 311 311
308 308 308 308 308 309 309 311 312 311 309 309 310 307 306 305 308 308 310 311 312 314 314 314 314 314 312 314 320 321 320 320 319 318 316 317 311 312 306 310 310 306 310 311 312 314 313
308 308 308 307 307 308 308 309 311 312 310 307 311 306 303 302 305 307 309 311 311 313 311 314 315 314 320 322 323 322 319 319 320 319 319 319 319 314 307 312 301 311 317 315 313 315 316
308 308 308 308 307 308 308 309 310 312 312 308 311 308 302 299 306 306 307 308 311 313 312 312 316 320 321 318 314 311 312 313 314 318 318 313 319 311 307 305 309 312 315 315 312 314 319
307 308 308 308 307 307 308 308 309 311 312 310 310 313 305 300 303 305 303 306 305 308 310 312 318 320 317 313 310 306 303 307 308 311 319 316 319 314 311 304 301 313 317 321 319 308 321
307 307 308 308 308 308 308 308 309 310 311 310 309 315 307 300 306 304 302 303 308 308 308 312 313 313 316 310 306 304 304 311 305 306 311 311 313 308 307 305 307 317 319 320 306 307 321
307 307 307 307 307 307 308 308 308 309 311 310 308 315 307 302 304 305 306 303 305 309 304 309 309 310 311 308 306 306 306 308 309 314 309 311 309 307 310 306 304 321 318 312 325 327 324
307 307 307 307 307 308 308 308 308 309 311 310 306 312 312 305 305 309 308 310 308 308 306 308 309 316 314 311 311 311 307 309 312 303 315 308 312 313 314 310 320 324 324 326 326 328 325

GFSGBSN_sfc_thetae_003.txt.gz
Theta_e
317 316 318 317 318 317 316 316 317 317 317 317 317 317 317 317 318 318 319 319 319 318 319 322 324 323 319 313 313 328 351 352 332 321 316 317 317 315 311 316 315 317 318 322 323 324 326
315 316 316 316 317 316 316 316 316 316 317 316 317 317 317 318 318 318 319 318 318 318 319 323 323 322 314 306 322 327 325 323 319 315 316 318 318 317 314 317 313 320 318 321 321 322 326
315 315 315 315 315 316 316 315 315 316 316 316 317 317 317 317 317 317 318 317 316 317 319 323 323 321 316 309 323 327 320 314 317 316 315 320 322 315 315 313 321 321 314 318 319 321 324
314 314 314 315 316 316 316 316 316 316 316 316 317 316 316 317 317 317 316 316 316 317 319 323 323 320 310 323 323 322 320 316 317 317 318 321 321 315 315 315 317 313 312 306 316 318 323
314 314 315 316 316 315 315 316 316 316 315 316 316 316 316 316 316 315 314 314 317 320 322 323 319 317 316 331 322 322 323 316 314 313 316 323 318 314 316 308 304 309 304 309 313 316 317
315 315 316 315 315 315 314 315 315 315 315 315 315 315 315 315 314 313 313 314 319 322 324 326 323 313 320 321 319 321 323 321 313 313 313 313 313 309 307 302 298 304 306 311 311 314 315
316 316 316 315 314 314 314 314 314 315 315 315 315 315 314 314 313 312 310 309 313 318 323 319 315 315 318 323 324 318 322 319 312 308 304 309 306 303 307 308 309 312 310 311 316 318 314
316 316 315 315 314 315 315 314 314 314 315 315 314 314 314 313 312 311 309 306 310 315 308 317 319 322 324 324 316 317 321 312 307 304 307 305 304 312 314 313 311 309 312 311 316 319 315
316 315 315 315 314 314 314 314 314 314 314 314 314 314 313 312 311 311 311 313 321 320 308 313 317 317 317 320 314 312 314 312 306 304 305 303 310 316 313 310 309 307 305 311 312 318 318
315 315 315 314 314 314 314 314 314 313 313 313 313 314 313 310 307 308 305 315 319 318 300 306 310 315 317 318 311 319 316 311 307 304 306 307 313 312 310 308 309 300 310 311 313 312 304
315 315 315 314 314 314 314 313 313 313 312 313 313 313 311 309 305 306 310 316 317 312 292 312 311 319 316 312 313 313 317 311 305 306 306 306 309 309 308 309 311 305 311 308 307 306 303
315 315 315 314 314 314 313 313 313 312 312 313 313 312 311 308 306 310 314 311 311 298 295 308 311 310 310 311 313 315 312 313 313 308 308 308 314 311 310 313 313 313 307 305 304 299 293
315 314 314 314 314 314 314 313 313 312 312 312 311 309 308 309 301 308 309 307 298 294 309 306 306 309 308 307 310 311 307 305 302 297 299 306 308 311 312 306 309 307 302 295 293 293 293
314 314 314 313 313 313 313 313 313 312 312 311 308 307 308 310 308 308 307 299 293 303 303 309 308 309 305 308 308 308 305 302 306 304 300 299 298 307 311 306 303 303 301 297 292 293 297
313 313 313 313 313 313 313 313 312 312 311 310 308 310 309 313 312 309 302 294 296 302 307 307 309 306 304 308 308 306 305 303 305 306 298 299 300 311 312 312 309 304 300 305 298 300 296
313 313 312 312 313 313 313 313 312 312 311 309 305 307 309 313 317 309 300 295 301 307 308 307 301 305 304 305 305 303 303 308 307 309 309 304 298 307 311 311 311 307 309 299 297 292 291
312 312 311 312 312 313 313 313 313 312 310 309 306 306 314 315 317 305 294 297 303 308 308 304 303 303 307 307 306 303 303 308 310 308 310 307 301 304 308 304 303 304 301 302 301 298 292
311 311 311 311 312 312 312 312 312 310 309 307 305 298 315 319 305 304 297 300 302 306 309 308 308 307 308 309 307 304 303 307 312 310 305 308 302 301 304 309 312 307 304 304 297 297 299
311 310 310 311 311 311 312 311 311 310 309 304 299 302 312 316 300 301 304 303 304 305 306 307 306 310 311 306 303 308 310 313 312 310 306 308 303 298 300 305 309 306 306 304 304 301 297
310 310 309 309 310 311 311 311 310 310 310 305 301 300 306 307 309 304 302 303 303 309 308 309 308 311 309 306 307 305 309 314 313 312 321 315 302 301 296 302 306 303 307 306 301 296 297
310 310 309 308 308 309 310 310 310 309 309 306 304 302 305 299 302 301 305 306 302 303 309 311 306 309 307 303 306 305 310 313 315 317 315 309 301 302 303 306 307 308 307 306 302 301 299
309 309 309 308 308 308 309 310 310 310 309 306 304 300 301 297 302 303 304 305 305 305 308 309 306 310 309 306 309 308 311 312 312 310 310 307 303 303 301 307 306 305 309 309 309 307 304
308 308 309 309 308 308 308 309 310 309 309 304 307 309 301 297 298 298 302 302 307 307 310 313 310 310 309 313 315 313 313 314 310 311 307 307 305 300 295 304 304 300 305 306 307 310 308
308 308 308 308 308 308 308 308 309 310 310 306 304 305 300 295 300 301 301 304 307 307 307 310 312 311 313 315 317 314 314 313 314 313 314 309 307 302 297 303 293 304 312 312 311 313 313
308 308 308 308 308 308 308 308 308 310 310 307 307 305 301 294 298 300 299 299 303 305 307 310 313 315 314 312 309 307 305 308 311 312 313 313 308 303 297 296 300 307 310 311 308 309 315
308 308 308 308 309 309 308 308 309 310 309 308 306 309 304 297 298 301 298 301 299 300 304 309 314 315 313 307 307 298 300 306 304 307 310 310 312 306 300 295 295 304 315 318 315 303 316
308 307 308 308 308 308 308 308 309 309 308 309 306 310 306 297 301 302 297 295 301 300 302 307 305 310 311 303 299 300 297 307 301 302 305 305 305 300 299 298 302 313 318 317 303 305 317
307 307 307 307 307 307 308 308 309 308 309 309 306 310 306 299 300 303 304 299 297 298 299 302 304 310 307 303 301 301 300 303 303 306 304 305 303 298 302 298 296 317 318 311 314 318 320
307 307 307 307 307 307 308 308 308 308 309 310 303 308 310 303 301 306 306 307 306 304 299 300 301 306 310 305 307 307 302 303 305 301 310 304 309 309 308 307 316 318 313 318 319 316 317

GFSGBSN_sfc_thetae_006.txt.gz
Theta_e
315 315 315 315 316 316 316 316 316 316 316 316 316 317 317 317 317 318 318 319 318 318 319 320 322 324 316 309 309 323 356 354 336 320 316 312 312 312 309 310 315 318 321 324 326 324 324
315 315 315 316 315 315 315 315 315 315 316 316 317 317 317 317 317 318 318 318 318 317 318 320 323 323 311 300 314 320 327 324 319 314 312 313 313 315 311 309 310 321 323 324 325 324 324
314 314 314 315 315 315 315 315 315 315 315 316 316 317 317 317 317 317 317 317 316 317 318 319 323 321 314 305 316 320 317 313 314 312 309 314 316 312 311 308 314 322 318 320 323 323 324
315 316 315 316 316 315 315 315 315 316 316 316 316 316 317 316 317 316 316 315 315 317 319 319 323 318 305 320 320 318 315 313 314 311 312 314 317 312 308 311 312 312 311 306 315 323 325
317 316 316 316 315 315 315 315 315 315 315 315 315 315 316 316 315 315 314 314 316 321 320 323 315 313 309 329 319 319 318 314 311 309 309 317 313 308 309 306 301 304 302 307 310 318 322
317 316 316 315 315 315 315 315 315 315 315 315 315 314 314 314 314 313 313 313 316 321 322 324 322 308 311 315 319 320 318 317 309 308 309 307 305 305 304 301 295 300 304 309 308 313 317
317 316 315 315 315 315 315 315 315 315 315 315 314 314 314 314 313 312 309 304 303 307 318 312 312 312 315 318 323 317 318 316 308 304 299 304 300 298 304 305 306 306 308 309 312 314 319
315 315 315 315 315 315 315 314 314 314 314 314 313 313 313 313 312 311 308 299 302 306 303 315 318 318 320 318 316 319 315 311 304 299 302 300 298 306 311 311 307 305 307 309 313 315 312
315 316 315 315 315 314 314 314 314 314 314 313 313 313 313 312 311 308 306 307 312 307 301 307 312 312 313 316 314 314 311 310 303 300 301 298 303 312 311 309 307 303 307 309 310 315 315
316 315 315 315 314 314 314 314 314 314 313 313 313 313 312 310 301 303 302 305 309 308 295 302 304 310 313 315 309 319 315 310 303 301 301 300 307 308 309 307 307 298 308 314 313 311 303
315 315 314 314 314 314 314 314 314 314 313 313 313 312 311 309 301 302 305 307 308 307 289 308 308 317 312 308 308 309 315 307 303 303 301 300 305 305 305 308 309 304 308 307 313 309 305
314 314 314 314 313 313 313 313 313 313 313 313 312 311 310 304 302 304 308 306 303 296 290 306 309 306 306 307 309 311 309 308 308 303 302 303 310 308 308 311 309 311 305 301 301 299 295
314 313 312 313 313 313 313 313 313 312 312 312 310 309 308 307 297 301 302 301 294 290 304 303 300 305 303 302 306 307 303 301 300 294 295 301 304 308 310 302 306 304 296 290 290 290 290
313 314 313 313 313 313 313 313 313 312 312 311 308 307 306 307 305 305 299 294 288 299 299 305 304 305 301 303 303 306 301 299 301 298 294 294 294 304 307 304 301 299 297 291 287 290 293
312 313 312 312 312 312 313 312 312 312 311 310 307 301 302 305 307 301 296 287 291 296 303 303 302 299 299 303 304 304 300 300 303 300 296 293 295 306 307 309 305 300 296 301 295 295 293
312 312 311 312 312 312 312 311 311 311 311 309 302 298 301 307 309 300 292 289 294 302 304 303 296 300 297 299 300 301 301 303 303 304 301 297 293 302 307 307 306 304 304 296 293 289 287
312 312 311 311 311 312 312 312 311 311 310 309 296 296 304 310 306 296 287 289 296 301 302 301 299 299 300 299 301 301 302 305 307 306 302 301 296 300 302 300 300 301 298 297 297 294 290
311 312 311 310 311 311 312 311 310 309 308 304 294 290 305 310 297 295 291 294 299 298 302 301 303 302 301 303 301 302 301 303 309 308 301 300 295 295 298 305 306 304 301 298 294 292 293
311 311 310 310 310 309 310 310 309 308 309 303 291 293 303 303 292 293 298 300 301 299 298 299 301 304 305 302 299 304 306 312 309 308 304 303 294 293 294 298 301 303 302 300 297 295 293
309 310 310 310 309 309 310 309 309 308 308 305 293 291 298 299 295 295 294 297 299 306 303 304 303 305 303 302 305 302 303 309 311 309 318 310 294 295 294 295 300 298 302 302 299 294 294
309 309 309 310 309 309 309 309 309 308 308 305 295 295 294 290 293 292 292 298 300 301 306 304 301 306 304 298 301 303 309 310 312 316 312 302 295 297 299 304 305 304 304 302 298 299 298
308 308 308 309 309 309 309 309 309 308 308 299 295 294 295 292 292 294 294 295 298 299 302 301 303 307 305 300 306 305 305 302 304 307 301 299 296 299 300 303 305 302 304 305 305 304 303
308 308 308 308 308 309 308 309 309 308 307 297 298 300 296 292 291 292 293 296 297 299 305 309 307 306 304 306 309 309 308 307 308 303 302 300 298 295 294 301 302 300 303 304 306 310 306
308 309 309 309 309 309 308 308 309 309 308 304 300 300 293 289 291 294 295 299 297 300 298 308 308 303 311 310 310 309 307 306 309 306 306 299 297 294 295 295 291 300 309 312 310 310 310
308 308 308 308 309 309 309 309 308 309 309 302 301 300 294 288 294 295 296 296 297 300 301 304 306 307 307 304 301 300 302 303 307 308 307 307 303 299 292 291 296 304 307 309 307 307 314
308 308 308 308 308 309 308 309 308 309 309 303 302 304 298 290 290 297 294 297 292 293 299 303 306 306 307 300 300 295 296 301 302 303 304 307 306 303 299 294 290 300 312 315 312 301 313
307 307 308 308 308 308 308 308 308 308 309 305 301 305 298 293 295 294 292 292 295 293 296 299 298 302 308 298 294 294 295 302 298 297 298 301 301 297 297 295 298 309 315 315 298 301 313
307 307 307 307 308 308 308 308 308 308 308 304 302 306 302 298 298 299 299 295 295 295 292 297 298 302 305 299 296 295 294 298 300 304 302 303 301 299 299 296 293 314 313 308 310 312 315
307 307 306 307 307 307 308 308 308 308 308 307 300 305 306 297 297 302 303 303 302 302 295 292 293 298 301 298 301 300 300 301 299 298 307 303 306 305 304 302 310 314 312 313 313 312 315

GFSGBSN_sfc_thetae_009.txt.gz
Theta_e
314 314 315 315 315 316 315 316 316 316 316 316 316 316 316 317 317 317 317 317 317 318 318 319 321 323 314 304 305 320 352 352 341 322 315 311 310 310 308 308 310 310 317 322 323 324 324
314 315 315 315 315 314 314 315 315 316 315 315 316 317 317 317 316 316 317 317 317 316 317 319 320 323 308 298 311 318 325 334 325 316 313 311 309 313 310 307 306 317 320 321 322 321 322
315 315 315 315 314 314 314 314 314 315 316 316 316 316 316 316 317 316 316 316 315 316 317 319 320 321 312 305 313 313 315 314 313 314 308 312 312 309 309 307 311 322 317 321 321 320 318
316 315 315 314 315 315 315 314 314 315 315 315 316 316 316 316 316 316 315 315 315 317 320 320 322 316 303 316 319 319 313 311 312 310 309 310 314 310 308 310 316 315 312 311 317 322 324
315 315 315 314 315 315 315 315 315 315 315 315 315 315 315 315 315 314 313 314 315 323 321 321 313 311 306 323 320 322 315 312 310 308 309 316 310 306 306 303 301 305 307 306 313 320 321
315 315 315 314 314 315 315 315 315 315 315 315 314 314 314 314 314 313 312 313 314 319 321 322 321 307 308 308 317 318 315 314 308 307 307 305 303 300 301 299 295 306 303 310 311 319 318
315 314 314 314 313 314 315 315 314 315 315 315 314 314 313 313 313 311 308 301 301 303 314 308 307 310 312 316 318 317 316 311 306 302 299 301 298 296 299 304 304 306 305 310 314 315 317
314 314 314 313 314 314 314 314 314 314 314 314 314 313 313 312 312 310 305 299 300 303 297 307 310 311 317 316 312 314 316 308 302 298 299 297 296 302 305 307 305 304 303 306 310 317 316
314 314 314 314 314 314 314 313 314 313 313 313 313 313 312 312 310 306 300 301 306 302 296 303 308 309 311 315 310 312 313 307 303 298 297 294 299 306 307 306 305 301 301 303 307 312 318
314 315 314 314 314 314 313 313 313 313 313 313 313 313 312 309 299 301 301 301 303 302 293 299 303 307 310 312 307 317 314 308 303 301 299 298 303 304 305 305 306 297 306 308 310 308 304
314 314 314 313 313 313 313 313 313 313 313 313 313 312 310 309 300 299 301 303 302 303 287 303 305 313 307 307 307 310 314 307 302 300 299 297 301 301 302 305 308 304 307 305 308 306 305
314 314 313 312 313 312 313 313 313 312 312 312 312 311 309 303 300 302 305 302 301 293 287 302 307 304 303 304 306 308 308 308 308 301 299 300 305 304 303 307 309 309 303 299 299 299 296
312 312 312 312 311 312 312 312 312 312 311 311 310 309 307 306 296 299 299 298 291 287 300 300 299 302 299 298 303 305 301 300 298 293 291 298 300 302 307 301 304 302 295 289 291 293 294
311 312 313 312 312 312 312 312 311 311 310 309 308 307 305 306 305 304 296 292 286 295 296 301 302 302 298 301 300 302 298 298 298 296 293 291 292 300 304 302 299 298 296 290 285 287 293
311 311 312 312 312 312 312 312 311 310 309 308 307 298 299 302 305 299 294 285 289 294 301 301 299 297 296 301 300 300 297 298 301 298 293 290 292 302 304 305 304 297 293 298 291 291 290
311 311 312 312 311 311 311 311 311 310 309 308 301 296 297 306 306 296 290 286 290 299 301 300 294 298 294 296 297 296 297 301 301 301 300 296 290 298 302 304 303 302 301 293 291 287 286
311 311 311 311 310 310 310 310 310 309 308 308 294 291 297 306 300 293 285 286 292 298 298 296 296 296 295 295 297 295 297 303 305 304 302 295 293 294 300 298 297 298 295 293 294 291 288
310 310 310 311 310 310 310 310 309 308 307 305 291 284 301 303 293 290 288 291 297 295 297 296 298 297 296 299 297 296 297 301 308 306 298 297 293 293 295 300 302 300 298 297 294 290 290
309 309 309 310 311 310 309 310 309 308 307 302 293 289 301 299 289 290 294 297 299 298 298 296 295 299 301 299 294 298 301 308 310 305 301 297 290 288 291 293 297 297 299 295 294 293 292
309 309 309 309 310 310 309 310 308 308 307 304 293 287 294 295 293 291 290 293 296 305 303 304 298 301 301 297 303 299 302 307 310 306 317 307 290 294 293 293 297 296 300 299 297 292 292
309 308 308 308 309 309 310 309 309 308 307 304 294 291 292 289 291 289 289 294 296 296 301 303 298 300 302 297 300 301 304 307 311 315 310 300 294 292 298 300 299 300 300 300 298 299 298
308 308 308 308 309 309 309 309 309 308 307 299 295 291 295 293 291 291 291 292 295 296 296 297 297 303 303 298 302 303 306 302 305 305 301 297 293 295 295 299 300 299 301 302 302 299 299
308 308 308 309 309 309 309 309 309 308 305 295 295 296 295 294 291 290 292 294 296 297 298 299 303 302 302 304 307 307 308 307 307 302 300 295 296 291 294 297 299 295 300 301 303 305 303
308 308 308 308 309 308 309 309 310 308 306 300 299 300 295 290 292 292 294 295 296 296 294 300 302 302 306 305 307 308 302 303 304 306 303 299 293 292 295 294 291 298 306 307 307 309 309
308 308 308 308 309 309 308 309 308 309 309 300 300 299 296 292 294 294 295 294 296 295 297 301 305 304 304 301 300 297 302 302 304 307 302 301 295 293 291 291 298 304 308 306 303 304 311
308 307 308 308 308 308 308 308 308 308 308 302 296 302 298 294 290 296 293 293 290 289 291 299 306 303 302 298 298 293 296 300 300 303 303 302 301 298 292 291 292 303 311 314 311 300 312
307 307 307 307 307 308 309 308 308 308 308 300 298 304 300 295 296 294 290 290 293 292 289 296 298 297 305 295 292 292 292 300 299 299 297 300 299 295 295 296 299 308 312 314 299 300 312
307 307 307 307 307 307 307 308 308 307 308 302 298 303 300 297 296 298 298 294 294 292 290 294 296 299 299 297 296 295 294 299 301 304 300 302 300 300 298 295 294 311 311 304 307 309 311
307 307 307 306 306 307 307 307 308 308 308 306 297 303 305 298 295 299 302 303 301 300 295 294 293 297 298 294 296 298 298 298 297 298 309 300 306 302 302 299 307 311 308 312 312 310 311

GFSGBSN_sfc_thetae_015.txt.gz
Theta_e
316 316 316 316 316 315 315 315 315 315 315 315 315 315 315 316 316 316 317 317 317 317 317 318 319 320 317 309 310 317 346 352 341 326 316 315 312 312 310 313 314 314 316 322 326 327 330
316 316 315 315 315 315 314 314 315 314 315 315 315 315 315 315 316 316 317 317 317 316 317 319 320 320 312 303 316 323 336 336 333 322 316 316 314 316 314 315 314 315 317 321 326 325 329
316 315 315 314 315 314 314 314 314 314 314 314 314 315 315 315 315 315 316 316 315 316 317 321 321 319 311 309 317 318 323 325 328 320 314 317 317 317 317 313 315 324 320 324 324 325 325
316 315 315 315 314 314 314 314 313 313 313 314 314 314 314 314 315 315 315 314 314 316 320 322 322 320 309 317 320 320 322 317 323 319 319 319 317 314 313 317 322 319 321 315 322 324 326
316 315 314 314 314 314 314 313 313 313 313 314 314 314 314 315 315 314 313 313 316 321 322 323 319 314 311 326 319 322 323 315 318 318 317 316 317 312 312 315 316 317 312 314 318 325 325
315 315 314 314 314 314 314 314 313 313 314 314 314 314 314 314 313 312 311 313 314 320 322 323 322 313 317 314 317 320 321 315 313 313 312 311 310 308 309 313 305 311 313 315 316 321 324
315 314 314 314 314 314 314 314 313 312 313 313 313 313 313 312 311 310 310 308 309 308 313 312 312 313 313 317 318 318 319 313 312 311 306 308 304 302 307 314 316 316 315 315 319 323 321
314 313 313 314 313 314 313 313 312 312 312 312 313 312 312 311 310 310 306 301 303 302 297 303 304 307 312 315 309 316 319 313 308 304 304 304 301 307 310 311 314 316 315 315 319 322 322
314 314 313 313 313 313 313 313 313 313 313 313 312 312 311 310 309 306 301 303 305 305 297 302 304 305 308 310 307 309 316 313 310 305 303 302 304 307 307 308 308 314 314 315 315 319 322
314 314 314 313 313 313 313 313 312 312 312 312 312 311 310 307 303 302 303 306 306 304 299 303 305 309 312 311 306 314 316 315 309 307 303 303 306 305 306 307 310 307 315 318 316 315 309
314 314 314 313 313 313 313 313 312 312 312 311 311 310 309 307 303 301 303 306 306 305 290 304 307 315 313 309 308 310 318 314 308 307 306 303 302 304 304 307 311 310 313 315 317 315 313
314 314 313 313 313 313 313 312 311 311 311 311 310 309 308 305 303 305 306 305 306 298 290 301 309 307 306 308 308 311 311 315 314 308 305 307 307 307 307 310 312 311 310 310 313 313 304
313 313 313 312 312 313 312 312 311 311 310 310 308 307 306 306 300 305 305 302 296 291 301 300 302 304 304 304 305 307 306 306 305 302 302 305 305 307 308 306 312 310 308 301 300 301 300
313 312 312 313 312 312 312 312 311 311 310 309 306 306 306 307 308 308 302 296 289 295 298 302 303 303 300 303 304 305 305 303 308 308 304 300 297 304 308 307 306 307 307 302 296 297 300
313 312 312 312 311 312 312 312 311 310 309 307 306 304 302 304 307 306 296 288 292 296 302 300 302 299 300 302 303 304 304 304 306 309 302 300 300 304 306 309 310 306 303 311 303 300 301
312 311 312 312 311 311 311 311 311 310 309 307 302 299 298 307 308 300 292 289 293 300 303 302 298 301 298 299 300 301 302 306 306 308 312 304 298 304 306 309 308 307 310 301 302 298 295
313 313 312 311 311 311 310 311 311 310 308 307 300 293 301 308 302 296 288 290 293 298 302 299 299 299 300 299 300 299 300 305 306 306 310 307 304 301 304 303 303 304 303 304 306 304 299
312 312 311 311 310 310 309 311 310 309 307 303 297 287 303 306 296 294 291 293 295 297 299 300 299 301 300 300 299 299 299 304 308 307 303 306 304 300 302 306 307 307 305 306 302 301 302
311 311 311 311 310 309 309 310 309 308 307 302 293 294 303 302 291 294 297 297 299 299 298 298 297 300 301 298 295 298 301 306 308 307 308 305 301 297 299 303 305 303 305 306 306 306 305
311 310 310 310 309 309 309 310 309 308 307 303 295 289 298 298 296 293 293 294 296 302 301 303 301 301 301 300 302 300 301 306 309 308 319 311 305 303 298 302 305 301 302 304 304 301 302
310 310 310 310 309 309 309 310 309 308 307 304 296 293 296 293 295 295 294 293 293 294 301 302 302 302 301 298 300 300 303 304 306 312 313 311 304 304 305 307 305 304 302 303 302 305 302
309 310 309 309 309 309 309 310 309 308 306 299 293 293 294 293 295 294 293 293 294 296 297 298 299 302 303 300 302 300 303 304 305 311 311 307 303 303 301 304 305 302 304 304 304 304 305
309 308 308 309 309 309 309 309 310 308 304 298 298 299 294 291 292 292 293 293 294 296 299 301 299 298 298 301 304 306 308 308 310 310 312 311 304 302 300 304 302 299 303 304 305 307 307
308 308 308 308 308 308 308 309 309 308 306 303 298 297 292 287 290 292 294 295 294 295 294 297 299 297 301 306 307 309 306 307 308 310 312 309 306 303 301 300 292 303 309 308 306 308 310
308 308 308 308 308 308 308 308 308 308 307 304 301 297 292 286 291 291 293 294 296 297 294 295 299 302 305 301 301 302 303 305 307 309 311 313 307 303 299 300 303 305 310 305 304 306 312
308 308 308 309 308 308 308 308 308 308 308 306 302 301 295 287 287 292 292 294 291 292 294 295 301 304 306 305 302 298 296 302 302 306 312 310 311 305 302 295 295 307 313 317 315 303 317
307 308 308 309 308 308 308 308 308 308 308 306 304 302 298 289 293 294 290 291 297 295 292 294 296 298 306 303 299 298 298 305 301 303 304 306 309 303 304 300 304 311 314 317 304 308 317
308 308 308 308 307 307 307 307 307 307 307 305 302 303 300 293 294 296 296 293 295 295 290 294 294 299 302 301 302 300 300 304 306 309 307 306 304 304 305 301 300 315 314 310 315 317 318
307 307 307 307 307 307 306 306 306 306 306 305 300 303 304 296 294 300 300 300 300 300 296 296 294 295 299 297 301 301 304 305 307 302 312 304 310 305 308 306 315 317 315 318 320 320 321

GFSGBSN_sfc_thetae_021.txt.gz
Theta_e
317 317 316 316 315 315 315 315 315 315 315 315 315 315 315 315 316 316 317 318 318 317 317 318 319 321 323 317 316 331 349 346 337 333 325 324 322 321 320 320 323 322 325 325 325 327 327
317 316 316 316 315 315 315 315 315 314 315 315 315 315 316 316 315 316 317 317 316 316 317 318 319 320 319 310 323 328 326 333 329 327 324 322 321 323 320 320 320 324 324 322 323 325 327
316 316 316 315 315 315 315 314 314 314 314 314 314 315 315 315 315 315 316 315 314 315 317 320 321 323 317 316 323 324 329 327 327 327 321 322 322 319 320 318 323 323 318 323 323 324 324
316 316 315 315 315 314 314 314 314 314 313 314 314 314 315 315 315 314 314 314 314 316 321 323 323 324 315 325 327 323 324 323 326 327 326 324 322 320 319 322 321 319 321 315 322 324 326
316 316 315 315 315 315 315 314 314 314 314 314 314 315 314 314 314 313 312 313 314 321 324 324 326 324 316 326 321 323 324 320 323 324 327 324 321 316 318 314 314 317 312 315 317 325 326
316 316 315 315 314 315 315 315 315 314 314 314 314 314 314 313 313 311 311 313 319 323 326 329 328 320 321 319 324 326 328 325 320 321 319 318 316 312 313 313 307 312 313 316 318 321 325
316 315 315 314 314 315 314 314 315 314 314 314 313 313 313 312 311 310 312 319 317 320 323 319 319 317 319 323 326 322 326 322 320 318 311 314 309 306 311 315 317 318 317 315 319 322 322
316 315 314 314 314 315 315 315 315 314 313 313 313 313 312 311 310 309 313 312 310 309 304 312 314 316 320 323 316 320 326 315 315 310 312 310 306 312 315 316 315 316 316 316 319 322 322
315 315 315 314 315 315 315 314 314 314 313 313 313 312 311 310 309 312 310 313 314 313 305 309 314 313 315 317 314 316 322 316 312 311 310 308 309 313 313 313 313 314 315 316 316 322 324
316 316 316 315 316 315 314 314 314 313 313 313 312 312 311 308 307 311 311 315 315 313 302 307 310 313 315 316 311 319 322 318 313 310 311 310 313 310 310 311 314 311 318 318 317 316 313
316 316 315 315 315 314 314 313 313 313 312 312 312 311 310 307 308 308 311 314 314 312 295 312 312 321 318 313 316 315 321 319 312 311 312 309 309 309 308 310 315 312 319 318 317 316 316
317 316 316 315 315 314 313 313 313 312 312 312 312 311 309 309 312 313 314 313 311 301 295 308 313 312 312 314 315 317 315 320 319 313 313 312 315 313 311 313 314 316 317 317 317 315 307
316 316 316 315 315 314 313 312 313 312 311 311 310 308 307 310 306 314 313 308 298 295 309 307 309 312 311 311 312 313 311 310 308 305 307 310 310 313 313 309 314 313 312 306 305 306 305
316 316 316 315 314 314 313 313 312 311 311 310 307 305 310 312 315 314 309 300 293 302 304 310 310 311 308 311 311 311 310 307 311 311 308 305 303 310 312 310 309 310 311 306 301 303 306
316 316 316 315 314 314 313 313 312 311 310 309 306 310 309 312 315 312 304 293 297 302 308 307 309 306 308 310 310 311 310 308 311 312 307 306 306 314 313 313 311 310 308 315 309 311 307
315 314 314 314 313 313 313 312 311 311 310 308 306 307 308 313 315 309 299 294 301 305 308 307 303 308 305 307 307 308 309 312 310 313 315 311 306 312 312 313 312 310 315 308 311 304 303
313 313 313 313 313 313 312 312 311 311 310 308 306 301 311 316 314 305 295 297 301 304 305 304 304 305 307 307 309 307 308 312 313 312 314 312 310 309 313 309 307 307 308 311 312 310 304
313 312 312 313 312 312 312 312 311 310 308 307 305 297 312 314 300 301 297 301 301 303 307 304 304 305 306 307 307 308 307 310 315 314 309 313 310 306 309 314 314 311 309 310 310 308 310
312 312 311 312 312 311 311 312 310 309 308 306 301 302 310 307 293 295 300 301 303 302 303 303 302 304 306 306 305 308 309 313 313 313 312 313 308 304 306 310 312 309 310 310 311 313 311
311 311 310 311 310 310 310 311 310 309 309 305 301 295 301 304 304 298 296 297 298 304 303 304 302 304 303 302 307 305 307 311 313 313 323 317 310 307 304 307 310 306 307 309 309 307 308
310 310 310 310 310 310 310 310 310 309 308 303 299 297 300 295 298 297 297 300 296 296 302 304 302 302 301 299 301 302 306 310 311 315 313 314 308 310 310 311 311 309 307 307 306 309 306
310 310 310 310 309 309 309 310 309 309 308 300 296 296 299 297 299 296 295 295 293 294 298 297 298 301 302 299 301 300 304 308 307 310 310 314 308 311 308 310 310 308 310 309 308 308 308
310 310 310 310 310 309 310 310 309 308 306 299 304 304 299 295 295 294 292 293 294 298 298 301 298 300 302 303 306 307 310 310 309 310 310 310 309 307 304 309 309 305 309 310 311 312 310
309 309 309 309 309 309 310 309 309 309 307 305 302 298 294 291 292 294 294 293 294 295 295 297 298 296 302 306 309 310 310 311 311 310 312 310 311 309 305 308 299 310 316 314 312 313 315
308 308 309 309 309 309 310 310 309 309 309 308 305 298 294 291 293 294 294 294 294 297 297 296 298 301 304 303 301 302 302 303 305 308 311 314 310 306 303 304 308 311 315 314 313 313 316
308 308 308 309 309 309 309 309 309 309 309 309 309 304 296 288 292 295 294 295 291 293 295 298 301 305 303 299 297 294 293 299 299 302 310 313 316 310 307 302 300 310 319 322 321 308 318
308 308 308 308 309 309 309 309 309 308 309 309 306 308 298 289 296 297 292 292 297 295 295 299 299 299 302 295 293 294 294 302 297 298 300 304 306 305 306 305 308 319 319 322 308 311 327
308 308 308 307 308 308 309 308 308 308 308 307 306 309 299 292 295 300 300 295 296 296 291 297 297 298 298 296 296 297 297 300 300 305 305 302 303 303 307 304 301 322 321 314 323 328 328
308 308 307 308 308 308 308 308 307 307 307 307 300 308 306 297 296 304 304 304 303 302 298 299 297 296 300 299 301 301 300 305 303 299 311 304 309 307 309 309 324 324 324 326 327 327 329

GFSGBSN_sfc_thetae_024.txt.gz
Theta_e
317 317 317 316 316 317 316 316 316 315 315 315 315 316 316 316 315 316 316 317 317 316 317 318 319 320 321 314 315 326 353 349 335 328 323 323 321 322 318 323 324 321 325 326 326 325 326
317 316 316 316 317 316 315 315 315 315 315 314 314 315 316 316 316 316 317 316 316 316 316 318 320 320 317 306 322 327 327 332 325 326 323 323 322 324 321 322 320 322 323 324 323 323 324
317 316 316 316 316 316 315 315 315 315 315 315 315 315 315 315 316 315 316 315 315 315 316 319 323 321 314 311 326 329 326 323 326 325 320 323 324 321 322 318 323 321 318 320 321 322 322
317 316 316 316 315 315 315 315 315 315 316 316 315 315 315 315 315 315 314 313 314 315 318 323 324 321 311 321 325 323 323 324 327 326 325 324 324 319 318 321 319 316 317 313 320 322 323
318 318 317 316 316 316 316 315 314 315 315 315 315 315 315 314 314 313 312 312 314 318 322 324 323 323 314 329 322 324 324 319 322 322 324 325 321 316 315 312 311 314 309 312 316 322 322
318 317 317 315 316 316 316 315 315 315 315 315 314 314 314 313 313 312 311 312 319 320 325 327 326 320 323 318 323 323 323 321 317 319 317 318 316 311 311 310 303 308 310 313 314 320 321
317 317 317 315 316 316 316 315 315 315 315 314 314 313 313 313 312 310 309 314 316 315 321 319 319 314 318 325 326 323 323 320 320 317 310 315 309 305 309 311 313 313 313 313 317 321 319
317 317 316 316 316 316 316 315 314 314 314 314 313 313 313 312 311 309 311 312 312 310 303 311 313 317 324 325 317 320 324 317 314 309 313 310 305 310 313 313 312 313 312 314 318 322 322
318 317 317 317 316 316 315 314 314 313 313 313 313 312 312 311 309 312 312 310 318 314 303 307 311 310 315 322 316 317 320 318 312 309 310 306 309 312 310 310 311 311 311 313 315 319 321
318 317 317 316 316 316 315 314 314 313 313 313 312 312 311 309 309 309 309 317 315 314 299 305 310 311 313 315 310 319 321 318 312 309 311 309 312 310 308 308 312 308 315 315 314 315 309
318 317 317 317 316 316 315 315 314 313 313 312 312 312 310 309 305 307 313 315 314 311 292 312 312 320 316 311 313 313 319 317 312 309 311 308 309 308 307 308 313 311 316 315 314 313 315
317 317 317 317 316 316 315 314 314 313 313 312 312 311 310 308 310 312 315 314 311 298 292 308 313 311 310 311 311 317 313 317 318 312 312 311 315 312 311 312 313 316 314 314 314 313 306
317 317 317 317 316 316 315 314 313 313 312 311 310 309 308 309 304 313 313 308 296 293 309 307 309 312 310 308 308 313 310 308 307 305 305 309 309 313 313 309 312 311 309 304 303 305 304
317 316 316 316 315 315 314 314 313 312 312 310 308 306 309 311 314 314 310 300 291 301 302 312 311 311 308 311 309 310 310 305 309 310 306 304 302 309 313 310 307 308 308 304 299 301 304
315 315 315 315 314 313 314 313 312 312 311 309 307 310 310 312 314 313 303 293 295 301 307 307 309 307 308 310 311 310 309 308 309 310 306 305 305 313 313 313 311 308 305 311 306 309 306
314 314 314 314 313 313 313 313 312 312 311 309 305 306 309 315 315 310 299 293 300 304 306 306 302 307 304 308 307 308 308 312 310 312 314 310 305 312 313 314 312 309 312 304 305 300 301
313 313 313 313 313 313 313 313 312 312 310 308 305 303 310 315 313 304 295 296 300 305 305 301 300 300 303 306 308 308 308 312 313 312 313 310 309 308 313 309 308 307 305 307 308 307 303
313 313 312 312 312 312 312 312 312 310 308 306 303 296 311 314 299 300 296 300 301 303 306 304 304 303 301 303 304 307 308 310 315 315 309 312 308 305 307 314 314 311 307 307 302 305 307
313 313 312 312 312 312 312 311 311 310 309 305 298 299 309 308 294 295 299 299 300 300 302 302 302 304 305 302 301 305 308 314 315 314 311 314 307 303 304 309 313 309 309 309 307 307 307
312 312 312 312 312 311 311 311 310 309 309 305 298 293 300 303 302 297 296 297 297 303 301 303 302 304 303 301 304 303 305 310 314 314 323 316 309 306 302 306 310 308 308 309 307 303 305
310 311 311 311 311 311 311 311 310 309 309 305 299 295 298 292 296 297 297 296 294 295 301 303 300 301 300 297 300 300 304 306 310 316 314 312 308 310 308 309 311 310 308 308 307 308 305
310 310 310 310 310 310 311 311 310 309 308 302 295 294 299 296 297 295 294 293 293 294 296 295 296 299 301 298 300 296 299 304 306 312 311 314 307 309 307 309 309 308 309 309 309 308 309
309 309 309 309 310 310 310 310 310 309 306 302 303 305 296 294 294 292 292 293 293 295 296 300 298 297 296 298 302 303 303 305 307 307 311 310 308 308 303 308 308 303 309 310 309 310 309
310 309 309 309 309 310 310 310 310 310 307 308 304 301 292 288 292 292 293 295 295 295 292 297 298 296 299 304 305 306 306 307 307 307 309 311 309 308 305 308 297 309 315 313 311 312 312
310 309 309 309 309 309 309 310 310 310 310 307 309 300 294 287 292 293 293 294 295 298 294 295 299 302 303 301 296 294 299 301 303 307 308 313 311 304 302 302 306 308 312 312 310 312 317
310 309 309 309 309 309 309 310 310 310 309 309 309 308 297 289 289 295 293 295 291 294 294 297 303 306 302 297 292 290 290 297 297 302 309 309 315 308 304 300 298 311 314 320 320 308 320
309 309 309 309 309 309 310 309 309 309 309 309 308 309 299 289 294 296 294 293 297 295 291 296 297 298 302 294 289 288 292 299 295 299 301 303 306 303 303 302 305 318 320 322 308 312 326
310 309 309 308 308 309 309 309 309 309 308 308 306 309 302 293 295 299 299 296 296 295 290 296 294 298 296 292 292 292 295 298 298 302 304 302 301 302 306 303 300 321 319 312 322 328 327
310 309 308 308 308 309 309 308 308 308 308 307 303 310 308 298 295 302 302 305 303 301 297 297 295 297 299 297 298 299 296 301 301 295 306 300 305 304 309 308 322 325 324 328 329 328 328

GFSGBSN_sfc_thetae_027.txt.gz
Theta_e
317 318 317 317 318 317 317 316 316 317 316 315 315 316 316 316 315 316 316 317 317 317 316 317 318 320 317 310 309 320 352 354 342 328 320 316 311 312 311 315 322 321 323 324 325 325 323
318 318 317 316 317 316 316 315 315 316 316 315 316 316 316 316 316 317 317 316 316 316 315 317 319 321 314 300 314 318 331 331 327 321 317 316 315 317 315 316 315 323 325 324 322 322 324
318 318 317 316 316 316 315 315 315 315 315 316 316 316 316 316 316 316 316 315 315 315 315 317 320 320 312 305 317 320 323 322 324 320 316 319 319 315 315 313 318 317 314 322 321 316 321
319 319 318 317 317 317 316 315 315 315 315 315 316 316 315 315 315 315 314 314 314 315 317 319 323 318 307 317 317 315 315 319 324 320 319 318 319 314 311 313 313 310 308 304 313 316 318
318 318 317 317 317 316 316 316 316 316 315 315 315 315 315 314 314 314 313 313 315 318 319 323 318 315 310 327 316 317 317 315 317 318 318 324 316 310 311 305 301 303 300 303 309 317 318
318 318 318 317 317 316 316 316 315 315 315 314 314 314 314 313 313 312 311 312 315 319 321 324 323 312 319 313 317 320 320 319 314 315 313 311 309 305 304 301 295 298 300 304 306 315 317
319 319 318 317 317 317 316 316 315 314 314 314 314 313 313 312 312 311 308 305 306 306 315 315 313 312 312 319 321 319 320 315 312 307 303 307 301 300 302 304 305 306 305 305 309 318 316
319 318 318 318 317 317 316 316 315 315 314 314 313 313 312 312 311 310 307 305 306 306 299 307 308 311 318 320 315 318 319 309 306 302 306 303 300 306 309 308 306 305 304 305 310 317 315
318 318 318 317 317 317 317 316 315 314 314 313 313 312 312 311 310 309 303 304 310 308 297 301 305 305 306 310 310 314 315 311 307 305 306 301 304 311 308 306 305 304 303 305 307 315 318
318 317 317 317 316 316 316 316 315 314 314 314 313 312 311 309 306 303 304 312 313 309 291 298 303 306 307 308 307 319 319 313 309 305 306 304 309 308 305 304 305 300 309 309 309 310 305
317 317 317 317 316 316 316 316 315 314 313 313 313 312 310 309 302 302 308 311 311 305 285 307 307 313 308 304 309 313 320 314 307 307 304 303 306 305 303 304 306 304 310 309 309 306 309
317 317 317 316 317 316 315 315 314 313 313 313 312 311 309 306 304 306 309 309 306 291 286 302 310 305 303 304 306 310 313 313 313 309 307 305 311 309 306 308 308 309 307 307 307 305 298
316 316 316 316 316 315 314 313 313 313 312 312 310 308 307 307 299 308 307 304 289 287 304 304 304 307 304 301 303 304 305 303 301 299 300 305 305 308 311 303 306 305 299 296 294 296 295
315 315 315 314 314 314 313 313 313 312 312 311 308 306 307 309 310 308 305 295 286 297 297 305 305 307 303 305 303 304 302 300 304 303 299 298 296 305 309 305 300 301 300 296 289 292 296
315 314 314 314 313 313 313 313 312 312 312 310 307 304 304 307 311 308 299 289 290 296 302 299 300 300 302 307 306 303 301 302 304 304 298 299 299 309 309 310 306 300 298 301 294 297 295
314 314 314 313 313 313 313 312 312 312 311 309 302 301 303 310 313 305 296 290 295 300 300 298 293 298 295 297 297 303 302 305 306 307 307 302 297 307 309 310 308 304 302 296 298 290 291
313 313 313 313 313 312 312 312 311 311 310 308 302 297 305 309 308 301 290 292 296 301 302 298 296 296 296 296 298 297 299 307 309 308 308 304 301 302 307 304 302 299 300 297 297 298 292
313 313 313 313 312 312 312 312 311 310 308 305 299 291 305 307 294 297 293 296 298 298 301 300 300 298 297 298 296 296 297 301 311 312 304 306 301 297 301 308 309 307 301 297 294 290 295
312 312 312 312 312 312 312 311 310 309 309 302 294 295 304 303 288 291 296 296 298 296 297 298 297 299 300 297 294 298 300 305 307 305 307 307 301 294 297 302 306 304 305 302 301 296 295
311 311 311 311 311 312 312 311 310 309 309 303 296 288 295 299 298 293 292 292 293 299 297 298 297 298 296 296 299 297 298 304 306 305 320 316 304 299 295 298 301 301 304 304 301 295 294
310 310 310 311 311 311 311 311 310 309 308 304 297 291 294 288 291 292 293 293 291 290 296 297 295 295 294 290 294 295 299 299 302 307 305 301 299 303 303 304 305 305 305 305 301 301 295
310 311 311 310 310 310 310 311 310 309 308 300 292 292 294 291 293 291 291 290 290 291 293 292 291 294 294 293 294 292 295 295 295 299 297 299 297 303 301 304 304 302 305 306 305 304 303
310 310 310 310 310 310 310 310 310 309 307 299 301 302 296 291 289 288 288 290 291 293 295 296 295 293 292 294 298 299 299 298 298 296 296 296 295 298 296 302 302 297 302 304 306 307 305
310 310 310 310 310 310 309 309 309 310 307 302 302 300 292 285 288 288 290 291 291 292 291 294 296 293 296 302 302 300 299 300 301 301 302 297 296 298 295 299 293 302 308 309 307 309 308
310 310 310 310 310 309 309 309 309 310 309 305 304 299 294 287 289 290 290 291 293 294 293 294 297 300 301 299 294 292 293 295 297 300 301 303 298 296 294 295 299 305 307 307 304 304 311
311 311 310 310 309 309 309 310 310 310 310 306 305 306 297 289 287 292 290 291 288 290 292 294 299 301 300 296 291 286 287 292 293 297 302 302 302 298 296 293 292 301 310 313 316 302 319
309 311 310 309 309 309 309 309 309 309 310 307 305 307 299 289 292 293 290 291 294 292 290 293 294 294 298 294 288 286 285 294 291 292 295 297 300 297 297 294 298 308 314 314 303 305 321
310 310 310 309 309 309 309 309 309 309 309 307 303 308 301 292 293 296 296 293 293 293 289 294 292 293 294 290 289 289 287 292 295 298 298 297 294 295 298 294 293 318 316 309 316 320 322
310 310 310 310 309 308 308 308 308 308 308 308 301 309 305 297 294 300 301 301 299 298 295 296 294 295 295 291 294 295 293 297 295 293 302 296 300 299 302 304 316 319 319 322 325 322 322

GFSGBSN_sfc_thetae_030.txt.gz
Theta_e
319 318 318 317 318 317 317 316 316 317 316 316 315 315 316 315 315 315 316 316 316 316 316 316 317 319 314 307 306 313 348 352 341 330 321 316 310 306 305 309 321 318 321 324 325 322 321
318 317 317 317 317 317 316 316 316 316 316 316 316 316 316 316 316 317 317 316 316 316 315 316 317 319 310 295 309 314 320 329 326 320 317 315 311 310 308 310 315 323 323 323 323 321 323
318 318 317 317 318 317 316 316 316 316 316 315 316 316 315 315 316 316 316 315 315 315 316 317 318 318 311 301 312 312 319 320 322 318 313 316 315 310 310 309 314 315 315 322 323 321 319
319 319 318 318 318 317 317 316 316 316 316 315 315 315 315 315 315 315 314 314 314 315 318 318 319 317 304 315 314 312 311 312 320 318 318 317 316 312 308 310 309 303 303 299 310 320 322
319 319 319 318 318 317 317 317 316 316 315 315 315 315 315 314 314 313 312 313 315 317 320 321 315 310 304 324 314 314 311 311 314 317 314 321 313 308 308 302 298 298 295 299 303 312 319
320 319 319 318 318 317 317 317 317 316 315 315 315 314 314 313 313 312 311 312 313 316 320 323 321 307 309 309 318 315 312 313 310 310 311 310 306 302 298 297 292 294 295 298 301 308 318
320 320 319 318 318 317 317 317 317 316 316 315 314 314 313 313 312 310 307 301 300 299 311 308 309 310 310 313 319 316 315 312 309 306 302 304 298 298 300 300 301 300 299 299 304 309 315
319 318 318 318 318 317 317 317 316 316 316 315 314 314 313 312 311 310 305 301 303 302 294 303 307 309 314 314 311 316 316 308 304 299 300 298 297 302 305 304 302 301 299 300 303 308 313
318 318 317 317 317 317 317 316 316 315 314 314 313 313 312 311 309 304 299 299 307 305 292 298 303 303 304 309 307 310 311 307 303 298 300 297 300 306 305 303 302 301 299 300 301 306 315
318 317 317 317 316 316 316 315 314 314 314 314 313 313 312 309 300 301 301 305 306 305 288 294 297 301 303 304 300 312 314 309 303 300 300 299 305 304 303 302 303 295 305 304 304 301 302
317 317 316 315 315 315 315 314 314 314 313 313 313 312 311 309 299 299 303 305 306 297 285 304 302 307 303 301 304 306 313 308 303 303 301 300 303 303 302 303 306 300 305 304 304 300 300
316 315 315 315 315 315 314 313 313 313 313 313 313 311 310 302 299 302 304 303 298 288 284 297 305 300 298 299 302 309 310 311 310 306 304 304 308 306 305 307 307 307 301 300 299 298 295
315 315 314 314 314 314 313 313 313 313 312 312 311 309 307 306 296 302 303 299 285 283 298 300 296 299 297 296 299 302 307 305 301 296 298 302 303 304 308 301 303 302 293 289 289 290 291
314 314 314 314 314 313 313 313 313 312 312 311 308 307 305 304 303 303 299 290 281 292 293 299 297 300 297 297 297 298 298 303 305 297 296 296 294 302 305 303 300 296 297 291 285 286 290
314 314 314 313 313 313 313 313 312 312 311 309 307 299 300 299 304 302 292 284 284 291 295 295 295 294 294 299 297 297 297 298 305 301 294 293 296 305 307 306 305 297 293 298 290 291 290
313 313 313 313 313 313 313 312 312 311 310 308 301 295 297 304 304 298 288 286 289 296 297 297 290 294 290 293 294 294 293 300 300 303 302 297 292 302 307 307 306 302 299 292 287 287 287
312 312 312 313 312 312 312 312 311 311 309 308 298 290 298 301 299 293 286 287 293 298 299 294 292 291 292 292 294 293 294 299 302 302 304 302 295 297 301 301 300 299 296 294 293 292 290
311 312 312 312 312 312 312 312 311 310 308 302 292 285 298 302 286 287 289 291 296 296 299 296 296 294 293 293 292 292 293 297 304 303 297 300 297 294 297 303 306 305 300 295 293 288 290
311 312 312 312 312 312 312 311 310 309 308 296 290 288 298 295 282 285 290 293 296 295 294 295 294 296 295 292 289 294 296 303 303 301 298 300 294 291 292 298 302 298 301 301 291 291 293
311 310 311 311 312 312 311 310 309 308 308 297 289 284 287 290 295 288 288 290 290 297 295 296 294 295 293 291 293 291 294 300 301 301 309 300 295 293 293 294 298 295 301 300 298 295 293
310 310 310 310 310 311 311 310 310 308 308 299 290 285 288 284 287 289 289 289 288 288 293 293 291 292 291 287 290 291 294 295 298 303 298 294 287 292 296 300 302 301 301 302 297 299 295
310 310 310 311 311 311 311 311 310 308 307 299 291 288 292 289 288 287 289 287 287 290 291 290 290 292 291 287 290 288 290 290 291 296 293 293 288 291 294 301 302 300 302 303 302 301 300
310 310 311 311 311 311 311 311 310 309 305 296 299 300 294 288 284 284 283 287 288 291 293 294 292 291 290 291 294 295 294 295 294 292 292 290 289 289 287 297 299 296 301 302 302 304 302
311 311 311 311 311 310 310 310 310 309 307 301 299 298 291 285 287 286 288 289 289 290 289 292 293 292 294 299 298 296 295 295 295 295 296 292 291 289 288 291 289 300 306 306 302 303 305
310 310 310 310 310 310 310 310 310 310 309 302 300 297 292 286 289 288 288 288 289 290 288 291 294 295 296 294 288 286 287 290 293 295 295 298 295 290 287 289 295 302 302 303 299 300 307
309 310 310 310 310 310 310 310 310 310 309 301 299 301 297 289 286 291 288 288 284 285 288 291 295 296 294 290 289 283 281 286 290 294 298 298 298 294 292 288 289 298 306 311 308 297 316
309 309 310 310 309 310 309 310 310 310 309 301 299 299 297 290 292 291 287 286 289 286 284 288 292 290 292 288 287 284 282 289 285 290 294 297 296 292 292 291 295 305 310 310 298 299 317
309 310 309 309 309 309 309 309 309 309 309 301 297 300 296 292 293 295 294 291 291 289 285 288 290 290 287 287 289 286 283 286 288 295 295 295 294 294 295 293 290 313 314 301 306 316 318
310 310 310 310 309 308 308 308 309 308 308 307 298 302 302 295 292 297 297 299 297 296 290 288 290 292 293 287 289 290 290 291 289 289 301 293 298 297 299 300 308 310 317 323 325 323 324

GFSGBSN_sfc_thetae_036.txt.gz
Theta_e
319 319 319 318 318 318 316 316 317 318 317 316 316 316 316 315 315 316 316 316 316 315 315 316 317 317 310 302 299 325 354 342 353 335 333 327 330 323 309 312 320 321 323 322 324 322 328
320 319 319 318 318 317 317 317 317 317 317 317 317 317 316 316 316 316 317 316 316 314 315 316 317 317 304 289 303 309 332 331 335 326 325 316 324 316 306 304 311 315 322 321 317 318 325
319 318 318 318 317 317 317 317 316 316 317 316 317 316 316 316 316 316 316 315 314 314 315 317 317 313 307 295 306 307 327 325 328 320 312 313 313 313 306 302 308 309 306 310 316 317 322
319 318 317 317 317 317 317 316 316 316 316 316 315 315 316 316 316 315 314 313 314 316 318 319 319 311 295 309 311 309 306 310 322 317 311 314 312 307 304 305 305 300 299 296 303 316 321
318 318 317 317 317 317 316 316 316 316 315 315 315 315 315 315 314 313 312 313 315 321 321 321 310 305 296 317 312 311 306 305 312 312 311 318 311 304 303 299 295 295 293 296 301 312 313
317 317 317 316 315 316 316 316 315 315 315 315 314 314 314 314 313 311 311 313 314 319 318 318 317 302 306 304 312 313 307 309 306 307 308 307 303 299 296 295 290 293 292 295 299 303 310
317 315 315 315 314 315 315 315 315 314 314 314 314 313 313 312 311 310 307 299 296 296 297 305 304 305 307 309 312 310 308 306 306 303 298 302 297 295 297 297 298 298 296 297 300 305 308
316 315 314 314 314 314 314 314 314 314 313 314 313 313 312 311 310 310 300 297 296 296 290 299 299 300 307 305 303 306 308 301 300 297 299 295 296 301 302 300 300 297 296 296 299 303 301
315 314 314 314 314 314 314 314 314 313 313 313 313 312 311 310 309 301 297 297 300 297 289 295 298 299 300 303 300 302 305 302 299 296 298 298 296 303 302 299 298 295 296 296 297 300 302
313 314 314 314 314 314 314 314 313 313 313 313 312 312 310 309 298 298 295 299 300 299 285 292 294 298 301 301 297 307 308 304 299 299 296 295 302 302 298 298 299 291 299 300 299 295 292
314 314 314 313 313 313 313 313 313 313 313 312 312 311 309 308 296 295 297 301 301 292 282 300 294 302 300 298 298 301 310 304 298 298 297 296 298 298 298 300 300 297 302 299 298 294 291
314 313 313 312 312 313 313 312 312 312 312 312 311 310 309 301 296 298 300 299 293 287 282 295 298 294 295 295 297 303 304 305 304 299 298 298 301 302 300 301 302 302 298 295 293 291 287
312 312 311 311 311 312 312 312 312 312 311 311 310 308 306 304 294 299 299 293 284 281 294 293 292 295 294 292 294 298 298 299 297 291 292 296 298 299 301 297 298 298 292 285 284 285 289
311 312 312 312 312 312 312 312 312 311 311 310 307 306 301 302 301 299 294 287 278 289 288 295 295 295 292 293 293 295 295 297 299 296 293 291 289 298 300 297 295 295 292 285 281 282 287
311 312 312 312 312 312 312 312 311 311 310 309 306 296 295 298 301 297 289 279 281 286 293 292 292 290 289 293 293 293 291 296 299 295 292 290 291 300 301 301 301 292 292 294 286 286 284
311 311 312 312 312 312 312 312 311 311 310 308 297 296 292 300 297 293 286 282 285 293 294 292 286 290 286 289 290 289 290 296 296 300 296 293 290 298 301 302 301 296 297 290 284 282 281
311 311 311 312 312 312 312 312 311 310 309 307 291 287 293 298 295 289 280 283 289 295 295 290 288 288 287 288 289 288 289 295 299 298 299 292 291 292 298 297 297 293 291 288 291 286 284
312 312 312 312 312 312 312 312 311 309 307 298 287 282 294 295 284 283 285 287 294 293 294 292 292 290 289 291 289 289 291 294 299 298 294 295 286 289 292 297 302 302 295 290 287 285 287
311 312 312 312 312 312 312 311 310 308 307 293 287 288 294 294 279 280 285 288 292 292 291 290 289 293 292 289 285 291 293 298 297 296 296 295 287 283 287 294 295 295 297 296 294 287 289
311 311 311 312 312 312 312 311 310 309 308 294 286 283 286 291 286 283 282 284 286 293 292 292 291 293 290 288 290 288 291 296 297 298 304 296 287 285 285 287 292 290 295 296 296 292 292
311 310 310 311 312 312 312 311 310 308 307 295 288 285 290 280 283 287 284 285 285 285 291 293 290 289 287 282 286 286 290 291 294 299 294 291 285 287 290 293 294 294 294 295 294 296 293
310 310 310 310 311 311 312 311 310 309 306 294 290 290 292 287 290 287 286 282 285 286 287 287 288 289 287 283 286 284 286 286 287 292 289 288 285 287 288 294 294 292 295 296 296 296 296
310 310 310 310 310 311 311 311 310 309 303 296 298 298 292 289 285 285 285 286 286 287 289 292 290 287 286 289 291 291 291 290 290 287 286 286 285 285 283 290 291 289 294 296 296 298 297
310 310 310 310 310 309 310 311 311 309 304 296 294 296 290 284 286 286 287 288 286 287 286 289 290 287 291 294 293 290 288 288 290 290 290 285 284 285 283 286 281 292 298 300 298 300 300
310 310 310 310 310 310 310 309 310 310 308 296 295 295 292 285 288 286 288 288 287 287 285 287 290 291 292 290 285 282 281 282 287 289 289 291 286 283 282 283 289 293 300 303 300 298 303
311 311 310 310 310 310 310 310 309 310 309 298 295 296 294 288 286 290 286 287 284 284 285 287 291 291 290 285 284 278 277 281 282 287 290 290 291 286 283 282 282 294 305 311 310 296 304
310 311 311 310 310 310 310 310 310 310 309 301 297 297 297 290 292 291 286 285 289 289 285 288 286 287 288 287 284 280 279 285 280 281 282 283 285 283 284 285 289 297 309 315 296 297 313
310 311 311 311 311 310 310 310 310 310 310 304 299 300 297 292 292 292 293 290 289 289 285 284 284 286 288 284 282 284 284 283 282 284 284 283 283 283 284 284 282 307 308 304 306 312 316
310 310 310 310 311 312 311 311 311 311 310 309 298 301 302 295 293 297 296 297 295 294 291 290 287 286 287 286 286 286 285 285 284 281 290 284 289 288 288 287 298 308 308 312 314 314 316

GFSGBSN_sfc_thetae_042.txt.gz
Theta_e
319 319 318 317 317 316 315 315 316 315 315 315 315 315 316 316 315 316 317 317 316 316 316 317 317 317 317 310 307 323 339 339 335 331 328 329 328 326 321 325 327 327 325 328 330 329 327
318 317 316 316 315 315 315 315 315 315 314 314 315 316 316 316 316 316 316 315 315 315 316 317 317 316 313 303 314 315 326 333 334 331 327 329 328 328 323 323 323 326 326 325 327 327 326
317 316 316 314 315 315 314 314 314 314 314 314 315 316 315 315 315 316 315 314 314 315 320 320 318 317 311 310 313 315 325 332 336 332 325 329 331 327 324 321 321 324 317 318 319 323 321
315 315 314 314 315 314 314 314 314 314 315 315 315 315 315 315 315 314 313 313 314 320 321 318 319 317 310 317 319 320 323 326 336 335 329 331 330 329 322 319 315 314 315 311 319 321 322
315 314 314 314 314 314 314 314 314 314 315 315 315 315 315 314 314 313 311 313 318 322 320 320 317 315 309 316 309 314 327 323 331 332 331 330 328 322 323 313 310 311 308 311 316 320 321
314 314 314 314 314 314 314 314 314 314 314 314 314 314 314 313 312 311 311 313 321 322 321 322 318 309 312 310 314 312 324 324 326 326 320 322 318 313 315 313 303 307 308 312 313 318 321
314 314 314 313 313 314 314 314 314 313 314 314 313 313 313 312 311 310 310 312 311 312 308 312 315 312 313 316 318 310 318 323 327 319 308 313 307 305 307 311 312 311 310 310 315 319 317
313 313 313 313 313 313 313 313 313 313 313 313 313 312 312 311 310 310 311 305 302 301 297 306 306 309 318 317 312 312 318 312 314 308 310 307 304 309 311 310 309 309 308 309 315 316 315
312 313 312 312 312 312 313 313 313 313 313 313 312 312 311 310 309 309 307 304 309 308 298 304 308 307 308 312 310 311 312 312 310 308 307 305 307 310 309 308 307 307 307 309 310 314 315
312 313 312 313 313 313 313 313 313 313 313 312 312 311 310 308 308 308 304 309 311 309 296 301 302 306 309 312 307 317 311 311 309 307 308 307 310 308 307 306 308 304 309 309 309 309 306
313 311 313 313 313 313 313 313 313 313 312 312 312 311 309 307 307 304 306 310 310 307 288 304 303 312 310 309 312 310 316 309 306 306 309 305 306 306 305 306 308 305 310 308 308 307 308
312 313 312 312 312 313 313 312 312 312 312 312 311 310 308 308 309 308 310 310 308 294 288 301 302 302 302 306 308 311 311 312 311 307 308 307 311 310 308 310 309 310 308 308 307 306 300
311 312 312 312 312 313 313 313 312 312 312 311 309 307 308 308 303 310 309 305 292 288 300 298 300 302 303 303 305 306 306 305 305 301 301 305 306 310 311 307 310 308 305 298 297 298 298
311 312 313 314 313 313 313 313 313 312 311 310 307 305 307 308 310 309 306 296 286 293 295 300 299 300 299 303 303 304 304 303 307 307 304 300 298 306 310 308 306 306 305 300 294 296 299
312 313 313 313 313 313 313 313 312 312 310 309 306 308 308 308 310 309 300 289 289 294 296 295 298 297 300 300 301 302 303 304 307 310 304 303 303 309 310 310 310 306 303 308 302 304 300
312 312 312 313 313 313 313 313 312 311 310 308 306 304 304 309 310 306 295 288 292 296 297 297 292 296 295 297 298 300 302 303 306 310 311 309 303 308 308 311 311 309 310 301 303 296 295
312 312 312 313 313 313 313 313 311 310 309 307 305 299 305 309 308 299 290 290 292 296 297 294 293 294 296 296 298 299 300 301 304 307 308 308 307 306 308 305 305 306 305 306 306 303 298
312 313 312 312 312 313 313 313 311 309 307 306 302 293 305 307 296 296 291 292 293 294 297 296 297 294 295 297 297 298 298 300 303 305 304 309 307 304 304 309 311 310 307 307 301 301 303
311 312 312 312 312 312 313 312 311 309 308 305 298 298 306 304 289 290 293 292 293 292 292 293 294 296 297 295 294 297 299 302 302 304 304 308 303 300 303 306 309 306 308 308 307 307 304
311 311 311 312 312 312 312 311 310 309 308 306 299 292 299 300 299 292 290 290 290 294 293 293 292 296 295 293 298 295 297 299 301 302 304 304 305 304 301 304 307 304 306 307 306 303 304
311 311 311 311 312 312 312 311 310 309 307 305 300 293 295 289 291 292 290 290 288 287 293 294 291 290 290 291 293 293 296 298 300 302 303 303 301 303 306 302 302 306 305 306 305 307 303
311 311 312 312 312 312 312 312 311 309 307 303 296 293 297 294 293 290 290 288 288 289 289 289 289 289 290 289 291 290 293 296 296 300 299 302 299 300 300 302 301 300 304 305 307 308 308
311 311 312 311 312 312 312 312 311 310 306 302 304 302 297 292 291 288 289 288 289 290 292 293 292 291 290 291 294 296 298 298 298 296 297 297 297 297 296 302 301 297 302 304 306 308 308
312 311 311 311 312 312 312 312 312 311 308 306 302 301 293 288 289 289 291 290 289 290 289 293 294 292 295 299 299 299 298 298 297 297 299 296 296 297 296 299 290 303 311 309 306 308 310
312 312 311 311 312 312 312 312 312 311 310 305 306 300 293 288 291 291 291 290 291 293 291 292 294 297 300 297 292 291 291 292 294 296 297 299 296 294 292 293 299 302 303 304 305 306 311
311 311 312 312 312 312 312 312 312 312 311 307 304 305 298 289 290 293 291 291 289 289 291 292 296 300 298 294 291 285 286 288 288 292 297 297 297 294 294 290 290 301 307 309 309 301 313
311 311 311 311 312 312 311 312 312 312 312 308 304 305 298 290 294 294 291 291 294 291 290 292 293 294 298 291 288 286 286 291 286 287 291 291 292 289 290 290 296 304 307 314 299 309 320
310 311 311 311 312 312 311 311 311 312 313 310 305 305 299 292 294 297 297 293 293 292 287 292 291 293 293 289 289 289 288 291 290 292 291 292 290 289 291 289 287 303 303 300 310 314 316
310 310 311 311 311 311 311 311 311 312 312 312 304 304 304 295 295 301 301 302 300 298 293 293 292 293 294 290 293 294 290 292 291 287 297 290 294 293 294 293 302 304 304 309 311 310 312

GFSGBSN_sfc_thetae_045.txt.gz
Theta_e
317 317 316 316 316 315 315 315 316 316 315 316 315 315 316 316 316 316 317 317 316 315 316 316 318 318 318 314 312 327 342 343 327 320 321 321 323 324 322 325 328 326 326 329 332 330 329
316 315 315 316 315 315 315 315 315 315 315 315 315 316 316 316 316 317 317 316 316 315 316 318 319 318 315 309 323 321 324 327 322 324 321 324 323 327 325 325 324 327 327 327 330 329 328
316 315 315 315 315 315 314 314 314 314 315 315 315 316 316 316 316 316 315 315 314 317 321 322 322 318 315 315 321 318 324 325 327 327 321 326 327 326 327 323 327 327 322 325 327 328 326
315 315 315 315 315 314 314 314 314 314 315 315 315 315 315 315 315 315 314 314 315 321 321 321 320 318 314 325 328 319 321 326 332 332 328 328 329 326 325 327 323 321 322 317 323 324 326
315 315 315 314 314 314 314 314 313 314 314 314 314 314 314 314 314 313 312 313 316 322 319 320 320 318 315 321 316 322 321 320 330 331 331 328 326 323 323 318 315 316 311 315 318 324 324
314 314 314 314 313 314 314 314 314 314 314 314 314 314 314 313 312 312 311 313 320 320 323 324 323 313 317 315 319 318 322 322 323 327 324 323 321 317 318 316 306 309 310 314 314 321 322
314 314 314 313 313 314 314 314 314 314 315 314 314 313 313 312 311 310 312 314 311 315 318 314 316 314 317 321 320 315 322 322 323 324 316 320 314 311 312 317 317 314 312 312 317 322 320
313 313 312 313 313 314 314 314 314 314 314 314 314 313 312 312 311 310 312 307 305 306 299 307 307 308 316 321 315 313 320 316 318 315 318 313 310 314 315 314 315 314 312 312 316 320 320
313 313 313 313 314 314 314 314 314 313 314 314 313 312 311 310 310 310 309 307 312 311 300 303 308 308 309 317 314 315 315 317 316 315 312 308 312 315 311 310 310 313 311 312 312 317 321
312 314 314 314 314 314 314 314 314 314 314 313 313 312 311 309 307 310 307 311 313 312 296 301 306 308 311 312 311 320 315 317 316 314 313 310 313 310 309 308 310 306 313 313 312 312 309
314 314 314 314 314 314 314 314 314 314 313 313 312 311 309 307 311 308 308 311 312 309 288 306 306 315 313 308 313 314 318 315 310 311 314 308 309 309 308 308 311 308 313 312 312 311 312
313 314 313 314 314 314 314 314 314 313 313 312 311 310 309 310 311 310 311 311 309 295 288 303 306 305 306 308 310 315 314 314 316 311 313 312 315 313 311 312 312 313 310 310 310 309 303
312 313 313 313 313 314 314 314 313 312 312 311 309 307 308 310 305 311 311 306 292 287 302 301 301 306 306 306 306 311 310 305 304 302 304 308 310 313 314 309 312 310 307 300 299 300 300
312 313 314 314 314 314 314 313 313 312 311 309 307 306 311 311 311 311 308 298 286 293 296 302 301 301 299 305 307 308 308 306 307 307 306 303 300 310 312 310 308 308 307 301 296 297 301
312 313 313 313 313 313 314 313 312 311 310 309 306 312 311 309 311 310 302 290 290 294 296 295 298 299 300 305 305 307 306 306 308 308 303 304 304 312 312 312 312 308 305 310 305 306 303
313 313 313 313 313 313 313 313 312 311 310 308 309 308 310 310 311 307 298 291 292 296 296 296 291 297 296 301 302 304 305 309 309 311 313 310 305 311 311 313 312 311 312 303 305 299 299
312 312 313 313 313 313 313 313 312 311 309 307 308 302 308 310 310 302 291 292 294 297 297 294 292 293 294 294 298 302 304 306 308 311 313 311 310 310 312 308 307 307 308 308 308 306 301
312 313 313 313 313 313 313 313 311 310 308 307 306 297 309 310 297 300 292 293 294 295 297 295 296 296 294 296 296 298 300 304 305 308 307 312 309 306 308 312 313 312 309 309 304 304 305
312 313 313 313 313 313 313 312 311 309 309 306 302 302 310 306 292 293 295 294 295 294 293 293 292 295 298 295 293 297 301 305 305 307 307 312 307 303 306 309 311 309 310 311 310 309 306
312 312 312 313 313 313 313 312 311 310 309 307 302 295 301 302 300 294 292 292 290 296 293 295 294 297 295 294 297 296 297 302 304 305 307 308 307 306 304 307 309 306 308 310 310 306 306
312 312 312 313 314 314 313 312 312 310 309 307 301 296 299 293 295 295 294 293 289 289 294 296 293 293 291 290 293 291 296 301 304 304 307 307 304 307 309 311 310 309 308 309 307 309 306
313 313 313 313 314 313 313 313 312 311 309 305 297 295 297 295 296 293 292 291 290 290 292 291 290 292 293 291 292 287 294 297 297 303 303 307 301 307 306 310 307 306 309 309 309 309 310
312 313 313 313 313 313 313 313 312 311 308 301 304 302 298 294 293 291 292 292 291 294 294 295 294 292 291 293 297 299 299 300 299 298 298 301 302 304 301 307 306 302 307 309 310 312 311
312 313 312 313 313 313 313 313 313 312 310 307 303 299 292 289 292 291 293 293 292 293 291 294 296 293 296 301 300 301 300 299 300 300 301 298 300 301 299 304 296 307 314 312 310 312 314
312 312 312 312 313 313 313 313 313 312 311 307 306 299 292 288 292 293 293 293 294 294 294 294 296 299 301 298 293 293 293 294 296 298 299 301 299 297 296 299 304 307 310 310 308 308 314
312 312 312 312 313 313 313 313 313 312 311 309 306 306 297 289 290 295 293 295 292 291 293 295 299 302 301 295 292 288 288 292 292 294 300 300 301 296 298 295 296 306 310 312 313 304 315
311 311 311 312 312 312 312 312 312 313 312 310 307 306 299 290 294 296 292 292 297 294 291 294 296 296 299 294 289 289 287 294 289 291 292 294 295 293 294 294 300 308 312 313 301 310 320
311 311 311 311 312 312 311 311 312 313 313 310 308 307 299 292 295 297 298 295 295 295 290 294 294 296 294 290 289 290 290 293 292 295 294 294 292 292 294 293 292 309 307 304 311 318 318
311 311 311 311 311 312 311 312 312 312 312 312 306 307 306 297 297 303 302 303 302 301 296 295 295 296 296 296 296 295 292 293 292 289 298 292 297 295 297 297 307 308 308 311 312 311 313

GFSGBSN_sfc_thetae_048.txt.gz
Theta_e
317 316 316 316 316 316 315 315 315 315 315 315 315 316 316 316 315 316 317 317 317 316 316 317 318 319 317 312 312 324 350 347 328 318 315 317 319 321 320 324 326 324 327 329 330 330 331
316 316 316 316 315 315 315 314 314 315 315 315 316 316 316 316 316 317 317 316 316 316 318 321 320 319 313 308 326 327 325 330 321 316 315 318 317 324 323 323 322 326 327 327 330 328 329
316 315 315 315 315 314 315 314 314 315 315 316 316 316 316 316 316 316 316 316 315 315 320 324 323 319 312 312 327 322 324 325 326 320 314 319 319 321 323 321 326 325 320 324 326 327 326
315 315 315 315 315 315 315 314 315 315 316 316 316 316 315 315 315 315 314 314 314 316 324 322 324 318 309 327 326 325 318 320 324 323 319 322 322 321 320 325 324 320 320 315 324 326 327
315 315 315 314 315 315 315 315 315 315 315 315 315 315 315 314 314 313 313 313 315 318 323 320 319 315 312 328 321 325 322 318 322 324 324 325 323 318 320 316 315 317 311 314 317 326 324
314 314 314 314 315 315 315 315 315 315 315 315 315 314 314 314 313 312 311 313 320 320 321 323 323 314 317 316 322 323 325 318 320 323 322 321 318 313 315 313 306 310 311 314 314 321 321
314 314 314 314 315 315 315 315 315 315 315 315 315 314 313 313 312 311 311 313 306 313 308 308 314 312 315 323 323 319 322 317 318 322 314 318 311 308 311 314 315 315 314 311 315 321 318
313 313 314 315 316 315 315 315 315 315 315 315 314 313 312 312 311 311 310 306 304 306 299 306 306 307 312 318 312 316 320 312 311 311 317 314 309 314 315 315 314 314 312 311 314 319 319
313 314 315 315 315 315 315 315 315 315 314 314 313 313 311 311 310 311 310 307 311 310 299 300 305 305 306 310 309 315 315 314 310 309 313 311 313 317 314 313 310 312 311 311 311 315 320
314 315 315 315 315 315 315 315 315 314 313 313 313 312 311 309 308 311 307 310 311 310 293 298 303 307 307 308 306 319 317 316 313 309 312 313 316 313 312 310 311 306 315 314 313 311 306
314 315 315 314 314 314 315 314 314 313 313 312 312 311 310 308 308 308 307 310 310 308 285 306 307 315 311 305 309 310 321 314 310 311 313 312 313 311 310 310 312 308 314 313 313 310 310
314 315 314 314 314 314 314 314 313 313 312 312 311 310 309 311 311 311 310 310 307 293 285 301 308 306 306 306 306 311 313 316 316 313 314 313 318 313 311 313 312 313 310 310 311 309 303
313 314 314 313 314 314 314 314 313 312 312 311 310 308 307 312 306 311 310 305 291 286 298 296 297 301 301 303 305 306 308 307 305 303 306 311 313 313 313 309 311 310 306 299 298 299 300
313 314 314 314 314 313 313 313 313 312 311 310 308 306 313 313 312 310 307 297 286 292 293 298 297 297 297 302 304 306 304 306 307 308 305 302 302 311 312 310 308 307 306 300 294 296 299
313 314 314 314 314 313 313 313 312 311 310 309 306 312 312 312 311 309 301 290 290 292 295 293 294 293 295 299 300 303 304 305 308 308 304 304 304 313 314 313 312 307 303 309 303 304 300
313 314 314 314 314 313 313 313 312 311 310 308 307 309 310 313 311 307 298 291 293 297 296 294 288 292 288 292 293 296 300 308 308 309 311 308 303 310 312 314 312 310 311 302 304 297 297
313 313 314 314 314 314 314 313 313 311 310 308 308 304 309 312 310 302 293 293 294 297 297 293 291 290 290 290 292 293 299 304 307 310 312 308 306 307 311 308 306 307 307 306 306 304 299
314 314 314 314 314 314 314 314 312 310 308 307 305 299 312 310 297 298 294 295 295 295 298 296 296 292 291 293 292 293 295 301 308 306 305 311 306 302 306 313 313 310 308 309 303 302 305
314 314 314 314 314 314 314 313 312 310 310 305 300 303 310 308 292 293 296 295 296 294 294 293 292 293 294 291 289 294 295 303 304 304 303 306 305 300 303 310 311 308 309 309 310 307 305
314 314 314 314 314 314 314 313 312 311 310 307 302 295 302 302 301 296 294 293 291 297 294 294 294 295 292 290 293 291 293 299 303 304 313 308 305 304 301 306 311 307 308 309 308 305 305
313 313 314 314 314 314 314 313 312 311 310 307 301 296 298 292 295 295 295 293 291 290 296 295 293 293 291 287 289 290 293 295 298 306 306 307 302 306 308 310 311 308 307 308 307 309 305
313 313 313 314 314 314 314 313 312 311 310 304 297 294 297 295 296 294 294 292 291 292 292 291 291 293 293 289 291 289 292 292 293 299 300 305 302 306 305 308 309 308 308 308 309 309 310
312 313 313 313 313 313 313 313 313 312 310 303 305 302 295 292 293 291 292 293 293 295 295 295 294 292 291 292 296 297 297 297 297 296 297 300 301 301 299 307 307 304 308 309 310 311 311
312 312 313 313 313 313 313 313 313 312 311 310 306 299 291 287 291 292 293 294 293 295 293 295 295 293 296 301 299 299 298 297 297 298 300 296 298 300 298 304 296 308 315 313 311 312 314
312 312 312 313 313 313 313 313 313 312 312 312 308 298 293 287 291 292 292 293 296 297 295 295 297 298 302 297 292 290 292 293 295 297 298 300 298 296 296 298 304 308 311 311 309 310 315
312 312 312 312 313 313 312 312 312 313 312 313 307 305 296 289 289 295 293 294 292 294 295 295 301 303 299 294 292 286 286 292 290 294 300 300 301 296 298 295 295 306 313 316 315 305 316
312 312 312 312 312 311 311 312 313 313 312 311 308 308 299 290 293 294 291 291 296 295 293 295 297 296 300 291 289 287 287 294 290 290 292 293 294 293 295 294 301 308 311 314 303 308 320
311 311 311 312 311 311 312 312 313 313 313 311 308 309 300 293 295 298 299 295 295 295 291 296 294 295 296 290 291 291 290 292 293 294 294 293 291 292 295 294 293 309 309 305 314 317 316
311 311 311 310 311 311 311 312 313 313 313 313 306 310 307 297 297 301 302 303 301 300 297 296 295 295 295 292 294 293 290 292 292 288 299 292 297 295 297 297 311 308 308 311 311 311 313